Location: Julian California
(33.0790°N, 116.6010°W)
Time: 17:25:44
(UTC-07:00)

USA 245 - Pass Details

Date: 12 July 2018
Orbit: 265 x 1003 km, 97.9° (Epoch: 12 July)

Event Time Altitude Azimuth Distance (km) Brightness Sun altitude
Exits shadow 22:19:42 41° 191° (S) 1,306 4.8 -24.1°
Maximum altitude 22:21:46 68° 258° (WSW) 960 4.5 -24.4°
Drops below altitude 10° 22:27:07 10° 341° (NNW) 2,362 7.5 -25.1°
Sets 22:29:17 0° 345° (NNW) 3,191 8.3 -25.4°
